Vorticity
nan nan nan nan nan nan nan nan nan nan nan nan nan nan nan nan nan nan nan nan nan nan nan nan nan nan nan nan nan nan nan nan nan nan nan nan nan nan nan nan nan nan nan nan nan
nan 7 7 7 7 7 8 8 8 7 7 7 6 6 7 9 14 21 20 7 1 2 6 9 11 11 9 9 11 7 5 5 3 5 7 4 5 8 9 10 15 6 7 1 nan
nan 7 7 7 8 8 8 9 9 8 7 7 6 7 7 11 18 26 8 3 2 2 5 5 9 5 7 12 10 6 2 4 4 6 4 4 5 8 13 14 15 3 6 6 nan
nan 7 7 8 8 8 9 10 9 8 7 6 6 7 12 12 11 24 9 1 -0 3 8 9 9 7 6 7 10 9 6 7 8 6 5 5 5 7 7 10 11 14 8 9 nan
nan 7 8 8 8 9 10 10 10 8 7 7 7 10 16 10 17 12 4 4 2 2 2 5 6 9 7 5 11 12 8 9 9 9 9 8 6 6 3 5 7 10 10 13 nan
nan 7 7 8 9 9 11 11 10 9 8 8 9 12 9 7 18 5 4 -2 -0 4 6 4 4 7 9 8 8 6 6 8 10 13 10 10 8 6 5 4 4 5 10 10 nan
nan 7 7 8 9 10 11 12 10 9 11 15 13 8 8 5 4 4 3 -2 3 5 6 6 7 7 8 10 8 8 10 9 10 6 6 10 15 8 5 6 5 5 9 7 nan
nan 7 7 7 9 10 11 10 8 13 18 21 15 4 2 11 9 12 8 3 9 9 2 4 6 9 8 8 10 12 10 8 8 10 13 7 6 10 11 8 6 6 7 9 nan
nan 8 7 8 10 10 11 9 13 18 17 13 8 3 8 15 8 13 8 5 7 7 6 5 5 8 11 13 13 11 9 10 10 11 14 14 9 8 10 11 9 6 6 9 nan
nan 8 8 8 10 12 15 16 18 18 8 1 -1 6 1 0 14 8 2 7 6 4 10 11 6 8 9 7 5 5 7 3 5 7 6 11 20 17 12 11 9 12 6 5 nan
nan 8 9 10 11 13 21 20 14 9 -0 -6 7 9 4 12 11 5 10 7 4 7 8 12 9 3 4 -2 -2 8 10 8 11 7 1 3 5 9 18 18 12 7 11 11 nan
nan 9 10 11 13 20 14 4 4 7 9 17 20 10 14 8 9 11 17 9 6 8 10 9 6 8 3 2 10 9 8 10 7 9 13 13 6 4 6 8 13 12 8 11 nan
nan 8 11 12 24 23 10 2 4 14 14 19 15 12 7 6 6 9 9 11 12 10 8 7 6 10 16 11 7 9 7 4 6 9 12 12 15 10 8 10 9 10 12 12 nan
nan 8 9 24 19 7 9 4 12 15 19 22 9 7 9 4 5 13 5 9 6 8 12 8 10 6 3 10 19 14 6 5 7 10 10 6 14 12 18 17 7 11 11 8 nan
nan 10 18 21 11 5 2 9 15 12 8 8 15 8 8 3 10 16 13 7 6 4 8 8 7 9 9 7 5 9 12 11 12 11 11 10 7 12 16 7 11 14 8 14 nan
nan 10 21 23 10 -2 5 15 12 8 7 6 -1 0 10 14 11 9 10 9 10 12 8 9 10 12 14 12 7 8 10 13 13 15 14 13 9 10 7 11 14 13 11 13 nan
nan 15 19 11 4 10 14 13 8 0 3 6 2 9 9 16 9 6 11 11 9 13 13 13 20 27 20 10 7 14 15 12 16 13 10 16 12 14 15 14 13 13 11 9 nan
nan 32 24 7 3 13 12 11 2 1 6 4 10 15 16 7 4 10 11 9 17 15 13 15 14 18 19 17 19 10 9 5 2 2 11 15 4 14 13 11 13 9 15 11 nan
nan 29 11 5 10 12 8 7 6 7 7 6 11 16 9 1 9 9 14 19 15 14 14 15 3 -2 7 19 6 5 9 9 11 13 7 1 15 8 14 27 10 9 17 14 nan
nan 12 11 5 11 9 11 9 1 6 8 10 9 5 7 10 6 9 16 10 11 10 9 13 13 6 8 14 4 5 9 17 13 10 14 6 15 12 16 19 20 13 16 26 nan
nan 9 6 8 15 12 6 3 7 7 8 8 10 7 7 9 8 12 12 2 12 9 14 16 12 2 8 6 4 8 15 6 7 8 6 12 10 3 8 9 17 15 20 27 nan
nan 8 7 8 12 10 8 10 12 6 7 10 12 7 6 7 13 16 10 7 7 12 12 12 11 9 11 16 25 14 7 5 5 6 4 9 4 1 6 14 9 20 19 14 nan
nan 14 8 4 10 6 5 8 9 11 12 11 7 7 10 11 15 10 -2 10 9 12 2 9 8 6 17 8 11 23 17 12 2 7 8 8 6 2 5 12 10 19 21 11 nan
nan 10 6 8 3 3 9 9 5 9 11 8 10 11 11 8 5 4 10 13 4 8 21 13 6 8 -0 -6 -4 3 7 10 10 9 10 4 5 5 7 8 9 8 14 24 nan
nan 9 10 5 1 4 8 10 6 7 7 10 12 5 6 12 11 6 10 2 11 22 27 11 10 11 3 6 8 7 9 6 5 3 4 9 12 4 4 6 8 7 8 17 nan
nan 8 5 7 8 12 10 7 8 8 12 10 10 12 10 12 8 4 9 13 19 18 8 7 6 8 16 20 22 26 18 11 11 7 8 11 10 12 3 11 9 9 5 23 nan
nan nan nan nan nan nan nan nan nan nan nan nan nan nan nan nan nan nan nan nan nan nan nan nan nan nan nan nan nan nan nan nan nan nan nan nan nan nan nan nan nan nan nan nan nan
CAPE
0 2 3 4 5 6 5 4 4 1 2 2 3 2 2 1 0 0 0 0 0 0 0 0 0 0 0 0 0 0 0 0 0 0 0 0 0 0 0 0 0 0 0 114 399
1 2 3 3 5 6 5 3 4 2 1 1 1 1 1 1 0 0 0 0 0 0 0 0 0 0 0 0 0 0 0 0 0 0 0 0 0 0 0 0 0 0 0 1 128
1 1 3 3 5 10 6 3 3 1 1 1 1 1 1 0 0 0 0 0 0 0 0 0 0 0 0 0 0 0 0 0 0 0 0 0 0 0 0 0 0 0 0 0 9
1 2 3 5 8 6 2 2 2 2 1 1 1 1 0 0 0 0 0 0 0 0 0 0 0 0 0 0 0 0 0 0 0 0 0 0 0 0 0 0 0 0 0 0 0
1 2 3 5 7 2 2 2 3 2 2 1 1 1 0 0 0 0 0 0 0 0 0 0 0 0 0 0 0 0 0 0 0 0 0 0 0 0 0 0 0 0 0 0 0
5 3 3 4 7 3 3 1 2 2 2 2 2 0 0 0 0 0 0 0 0 0 0 0 0 0 0 0 0 0 0 0 0 0 0 0 0 0 0 0 0 0 0 0 0
4 6 8 6 6 4 2 2 4 1 3 4 4 0 0 0 0 0 0 0 0 0 0 0 0 0 0 0 0 0 0 0 0 0 0 0 0 0 0 0 0 0 0 0 0
2 4 6 5 4 4 3 4 0 0 1 2 1 0 0 0 0 0 0 0 0 0 0 0 0 0 0 0 0 0 0 0 0 0 0 0 0 0 0 0 0 0 0 0 0
3 2 7 5 4 2 1 1 0 0 0 0 0 0 0 0 0 0 0 0 0 0 0 1 0 0 0 2 3 1 0 0 0 0 0 0 0 0 0 0 0 0 0 0 0
3 2 7 7 2 1 2 0 0 0 0 0 0 0 0 0 1 0 0 0 0 0 11 13 5 26 19 24 13 35 61 38 31 6 25 2 5 0 0 0 0 0 0 0 0
2 3 6 6 3 1 0 0 0 0 2 0 0 0 0 0 0 0 0 0 0 15 20 17 16 33 128 46 16 115 189 162 63 44 15 1 1 0 2 9 0 0 0 0 0
2 4 5 2 1 1 0 0 0 0 0 0 0 0 0 0 0 0 0 0 6 19 23 31 43 67 49 85 108 128 101 88 81 55 116 64 43 21 6 0 16 0 0 0 0
0 1 2 0 0 0 0 0 0 0 0 0 0 0 0 0 0 0 0 0 3 13 17 20 19 24 33 37 114 117 81 152 77 106 86 88 90 98 38 8 0 22 0 0 0
0 0 0 0 0 0 0 0 0 0 0 1 1 0 0 0 0 0 0 0 0 5 17 19 20 24 35 58 52 80 99 91 63 171 157 211 104 112 86 48 1 0 5 0 0
1 0 0 0 0 0 0 0 0 0 24 0 0 0 0 0 0 2 2 0 1 12 6 0 17 26 27 45 69 40 69 71 73 196 245 154 236 31 79 59 13 0 7 0 2
0 0 0 0 0 0 0 0 0 5 22 0 0 0 0 0 15 35 27 12 16 10 18 7 1 20 6 20 42 65 66 76 75 190 192 182 197 55 87 34 52 8 1 1 0
0 0 0 0 0 0 0 0 8 22 0 0 0 0 0 8 20 18 18 18 28 25 23 28 19 30 16 20 25 52 74 111 82 262 138 181 89 52 71 23 24 60 31 4 3
0 0 0 0 0 0 0 0 27 0 0 0 0 0 5 3 6 12 13 9 20 27 52 69 15 20 0 16 48 44 61 119 37 92 175 12 72 40 117 69 32 46 25 22 3
0 0 0 0 0 0 0 1 0 0 0 0 0 3 20 6 10 17 17 6 27 41 51 20 2 1 1 0 5 34 58 83 152 68 208 172 90 120 133 102 52 11 43 28 0
0 0 0 0 0 0 0 0 0 0 0 0 1 2 10 14 15 9 15 13 32 46 44 34 34 0 0 0 0 11 12 131 219 39 62 85 89 43 109 60 3 0 0 30 9
0 0 0 0 0 0 0 0 0 0 0 0 3 12 29 22 18 12 6 21 27 36 44 21 19 0 0 0 5 37 73 55 119 125 129 218 101 210 191 126 186 0 1 87 31
0 0 0 0 0 0 0 0 0 0 0 0 1 23 18 27 33 27 7 11 17 17 29 24 36 54 1 0 0 10 35 160 274 146 135 244 214 95 270 290 135 51 16 43 3
0 0 0 0 0 0 0 0 0 0 0 0 0 12 19 37 56 43 20 11 5 3 9 11 59 32 4 16 0 17 27 33 108 266 127 195 261 111 126 238 182 37 35 69 206
0 0 0 0 0 0 0 0 0 0 0 0 4 18 27 25 37 24 7 4 13 18 53 16 8 9 7 4 31 36 0 20 26 191 172 153 15 184 21 116 69 32 84 56 52
0 0 0 0 0 0 0 0 0 0 0 0 3 11 26 45 12 16 18 14 26 26 5 5 23 10 22 25 19 16 11 4 16 21 159 79 63 34 42 79 8 2 47 90 149
0 0 0 0 0 0 0 0 0 0 0 0 11 13 24 48 29 9 27 9 26 22 6 8 15 15 13 2 5 2 9 8 6 9 40 40 19 86 76 67 4 0 121 180 722
0 0 0 0 0 0 0 0 0 0 0 12 27 14 25 12 24 13 27 17 46 10 1 1 13 43 1 20 28 0 19 30 29 68 102 154 133 127 187 118 36 23 1 177 905